METAR Formatted Surface Weather Observation
Issued by NWS Upton, NY

Home | Current Version | Previous Version | Text Only | Print | Product List | Glossary On
Versions: 1 2 3 4 5 6 7 8 9 10 11 12 13 14 15 16 17 18 19 20 21 22 23 24 25 26 27 28 29 30 31 32 33 34 35 36 37 38 39 40 41 42 43 44 45 46 47 48 49 50
000
SAUS41 KOKX 241752
MTRNYC
METAR KNYC 241751Z AUTO 06005KT FEW039 BKN060 25/16 A2990 RMK AO2
SLP114 T02500161 10250 20222 58000



USA.gov is the U.S. government's official web portal to all federal, state and local government web resources and services.